Regional Weather Roundup
Issued by NWS Wakefield, VA

Home | Current Version | Previous Version | Text Only | Print | Product List | Glossary Off
Versions: 1 2 3 4 5 6 7 8 9 10 11 12 13 14 15 16 17 18 19 20 21 22 23 24 25 26 27 28 29 30 31 32 33 34 35 36 37 38 39 40 41 42 43 44 45 46 47 48 49 50

000
ASUS41 KAKQ 021715
RWRAKQ

REGIONAL WEATHER ROUNDUP
NATIONAL WEATHER SERVICE WAKEFIELD VA
100 PM EDT SUN AUG 02 2015

Note: "fair" indicates few or no clouds below 12,000 feet with no
significant weather and/or obstructions to visibility. * = Denotes
station may not report precipitation (e.g., rain,snow,etc.),
thunder or fog.

VAZ042-051-052>054-056-021800-
NORTHERN VIRGINIA

CITY           SKY/WX    TMP DP  RH WIND       PRES   REMARKS
WASH NATIONAL  PTSUNNY   89  58  34 CALM      29.97F
DULLES         PTSUNNY   83  55  38 W8        29.98F
FORT BELVOIR   SUNNY     85  62  45 VRB2      29.97F
QUANTICO       NOT AVBL
FREDERICKSBRG* MOSUNNY   86  60  41 SE3       29.97F
STAFFORD*      MOSUNNY   85  55  36 W3        30.02S
WARRENTON      MOSUNNY   86  61  42 W6        29.98F
CULPEPER*      MOSUNNY   83  60  45 NE3       29.99F
MANASSAS*      SUNNY     86  55  35 W5        29.98F
LEESBURG*      MOSUNNY   86  57  37 SW6       29.99F
WINCHESTER     PTSUNNY   84  55  37 W6        29.98F
FRONT ROYAL*   CLOUDY    82  61  47 S3        29.99F
LURAY*         FAIR      86  55  35 E6        30.00F
$$

VAZ048-049-060>072-079>083-021800-
CENTRAL AND SOUTH CENTRAL VIRGINIA

CITY           SKY/WX    TMP DP  RH WIND       PRES   REMARKS
RICHMOND       PTSUNNY   88  62  41 N6        29.98S
CHESTERFIELD*  FAIR      88  55  33 N5        29.99F
PETERSBURG*    PTSUNNY   88  66  47 N7        29.98S
HANOVER        PTSUNNY   85  63  47 NE3       30.00S
TAPPAHANNOCK*  PTSUNNY   84  58  40 CALM      29.98F
QUINTON*       FAIR      85  62  46 N3        29.97S
CHARLOTTSVILLE MOSUNNY   83  54  36 VRB3      30.00F
GORDONSVILLE*  FAIR      81  59  47 CALM      29.99F
ORANGE*        MOSUNNY   84  55  37 CALM      30.01S
LOUISA*        PTSUNNY   84  55  37 CALM      29.99S
BUMPASS*       FAIR      82  61  48 N7        29.99S
FARMVILLE*     CLOUDY    84  56  38 N6        29.99F
CREWE*         FAIR     N/A N/A N/A N5        29.99F
FORT PICKETT*  FAIR      85  60  43 N5        29.99S
CHASE CITY*    FAIR      84  64  50 NE3       30.00F
CLARKSVILLE*   FAIR      82  61  47 CALM      29.99F
SOUTH HILL*    PTSUNNY   83  61  46 N5        30.04F
LAWRENCEVILLE* FAIR      84  63  48 NE3       29.98F
EMPORIA*       PTSUNNY   82  63  51 NW5       29.98F
$$

VAZ088>098-021800-
SOUTHEAST VIRGINIA

CITY           SKY/WX    TMP DP  RH WIND       PRES   REMARKS
NORFOLK        PTSUNNY   85  73  67 N10       29.94S
VIRGINIA BEACH PTSUNNY   85  74  69 NE10      29.93S
NORFOLK NAVAL  PTSUNNY   85  73  67 N9        29.96S
WEST POINT*    MOSUNNY   89  61  39 N5        29.97F
SALUDA*        FAIR      84  65  53 N6        29.96S
NEWPORT NEWS   MOSUNNY   88  66  48 VRB7      29.96S
LANGLEY AFB    MOSUNNY   73  70  88 NW5       29.87S
FORT EUSTIS    MOSUNNY   87  62  42 NE8       29.94S
WILLIAMSBURG*  MOSUNNY   90  72  55 NE5       29.97S HX  96
HR EXEC AP*    FAIR      88  73  62 N3        29.96S HX  96
FRANKLIN*      MOSUNNY   87  70  58 W3        29.95F
WAKEFIELD      PTSUNNY   87  69  54 VRB5      29.96F
$$

VAZ020-022-025-037-045-021800-
WEST CENTRAL AND SOUTHWEST VIRGINIA

CITY           SKY/WX    TMP DP  RH WIND       PRES   REMARKS
STAUNTON*      MOSUNNY   84  50  31 S3        30.05S
WAYNESBORO*    FAIR      78  55  44 SW3       30.04F
HOT SPRINGS VA PTSUNNY   68  58  69 SE3       30.14F
LYNCHBURG      PTSUNNY   81  57  43 W3        30.03F
DANVILLE       PTSUNNY   82  57  42 VRB3      30.01F
SOUTH BOSTON*  FAIR      82  61  48 CALM      30.01S
MARTINSVILLE   PTSUNNY   84  53  34 N8        30.05S
ROANOKE        PTSUNNY   82  56  40 VRB5      30.06S
BLACKSBURG     PTSUNNY   77  57  50 N7        30.11F
DUBLIN*          N/A     76  58  51 NE3       30.10F
MARION*        MOSUNNY   77  57  49 SE3       30.13F
HILLSVILLE*    MOSUNNY   76  55  49 N5        30.10F
RICHLANDS*     FAIR      76  56  49 NE5       30.11S
WISE*          MOSUNNY   79  54  41 S6        30.12S
ABINGDON*      SUNNY     81  52  36 CALM      30.08F
$$

MDZ021>025-VAZ099-100-021800-
SOUTHERN MARYLAND AND THE DELMARVA PENINSULA

CITY           SKY/WX    TMP DP  RH WIND       PRES   REMARKS
PATUXENT RIVER PTSUNNY   85  54  34 N6        29.96S
BAY BRIDGE APT   N/A     82  55  39 W5        29.96F
LEONARDTOWN    SUNNY     84  52  32 CALM      29.99S
DOVER          MOSUNNY   86  60  41 N7        29.94F
GEORGETOWN     MOSUNNY   85  62  46 VRB3      29.96S
EASTON         MOSUNNY   86  59  39 W6        30.00S
CAMBRIDGE      SUNNY     84  48  28 N3        29.96S
SALISBURY      MOSUNNY   86  61  42 VRB5      29.95F
OCEAN CITY     PTSUNNY   83  66  56 E9        29.95S
WALLOPS ISLAND CLOUDY    83  69  62 E7        29.96S
ACCOMACK*      PTSUNNY   86  61  42 N5        29.95S
$$

NCZ012>017-030>032-021800-
NORTH CENTRAL AND EASTERN NORTH CAROLINA

CITY           SKY/WX    TMP DP  RH WIND       PRES   REMARKS
ROANOKE RAPIDS FAIR      86  63  45 N8        29.96F
RALEIGH        PTSUNNY   85  59  41 NE7       29.99F
ELIZABETH CITY MOSUNNY   91  66  43 VRB5      29.93F
AHOSKIE*       PTSUNNY   85  66  53 N3        29.95F
EDENTON*         N/A     90  60  36 CALM      29.94S
CURRITUCK*     MOSUNNY   91  60  34 W3        29.94S
KILL DEVIL HLS MOSUNNY   94  66  39 SE5       29.92F HX  97
MANTEO         MOSUNNY   88  74  64 S6        29.93F HX  96
CAPE HATTERAS  SUNNY     87  74  64 S7        29.94F HX  95
TARBORO*         N/A     91  60  35 CALM      29.96S
GOLDSBORO      SUNNY     91  63  39 VRB5      29.93F
WASHINGTON     SUNNY     89  67  48 NW6       29.95S
GREENVILLE     SUNNY     91  61  35 CALM      29.97S
NEW BERN       SUNNY     93  65  39 SW5       29.94F HX  95
WILMINGTON     PTSUNNY   91  73  55 VRB3      29.94F HX  99
$$

VAZ048-021800-
ELSEWHERE

CITY           SKY/WX    TMP DP  RH WIND       PRES   REMARKS
HARRISBURG PA  PTSUNNY   84  59  42 S6        29.93F
BALTIMORE      PTSUNNY   84  55  36 VRB3      29.95F
ANNAPOLIS      MOSUNNY   84  58  40 CALM      29.95F
ANDREWS AFB    MOSUNNY   87  54  32 NW7       29.96F
PHILADELPHIA   PTSUNNY   87  52  29 VRB7      29.94F
HENDERSON NC   MOSUNNY   83  53  34 NE5       30.00S
GREENSBORO     MOSUNNY   84  55  36 VRB3      30.00F
ROCKY MOUNT    MOSUNNY   90  57  32 MISG      29.96F
$$

VAZ100-021800-
MARINE

STATION/POSITION TIME  TEMP    WIND        PRES    WAVE   SWELL
                       AIR SEA DIR/SP/G            HT/PER HT/PER
                 (UTC) (F)     (DEG/KT/KT) (MB)    (FT/S) (FT/S)
BRANDYWINE LGT   1600   77 74  320/  3/  3 1014.8R
CAPE MAY NJ      1600   84 73  310/  5/  9 1014.1R
LEWES DE         1600   77 74  350/  3/  4 1014.5R
15NM E FENWICK I 1650   79 80   20/  6/  6 1014.5R   3/ 7   2/ 7
OCEAN-CITY-INLET 1600   79 72   70/  9/ 12 1013.5R
WACHAPREAGUE VA  1600   81 83   50/  8/ 10 1014.4R
GOOSES REEF MD   1700   81 84  360/  6/  8 1015.8F
COVE POINT MD    1600   79      10/  7/  9 1015.5R
SOLOMONS ISLAND  1600      83                N/A
BISHOPS HEAD MD  1600   83 82   20/  5/  8 1013.7R
PINEY POINT MD   1612          360/  5/  6   N/A
POTOMAC MD       1700   82 83   30/  8/ 10 1013.5F   1
CAMBRIDGE MD     1600   82 84  360/  3/  5 1013.9R
LEWISETTA VA     1600   82 84   20/  3/  5 1014.4R
RAPPAHANNOCK LGT 1600           10/ 12/ 14 1014.8R
STINGRAY PT      1700   82 83   30/ 10/ 14 1014.5S   1/ 3
YORK RVR RNG VA  1600   82      30/ 13/ 14 1013.7R
YORKTOWN VA      1600   83 84   50/  8/ 12 1014.1R
JAMESTOWN VA     1700   83 86   10/  4/ 10   N/A
DOMINION TERM VA 1600   83      20/  6/  9 1014.0R
KIPTOPEKE VA     1600      82   40/  6/ 10   N/A
CHES BAY BRIDGE  1600   81 80   30/  8/  9 1013.6R
CAPE HENRY VA    1600   79      30/  9/ 12   N/A
CHESAPEAKE LGHT  1600   80      30/  6/  7 1014.5R
WILLOUBY STN VA  1612   81      40/  8/  9 1015.1R
CAPE HENRY BUOY  1628      81                N/A     2/11   2/11
1ST LANDING BUOY 1700      80              1013.8R   1/ 4
CAPE CHARLES BUO 1626      79                N/A     2/12   2/12
OFFSHORE WE BUOY 1611      84                N/A     2/13   2/13
64NM E OF VA BCH 1650   82 83  150/  8/ 10 1013.5F   3/ 7   3/ 7
DUCK PIER NC     1600   85 78  110/  5/  6 1013.1R
44100 DUCK FRF   1624      83                N/A     2/12
44056 DUCK FRF   1611      81                N/A     2/11   2/11
OREGON INLET NC  1600   84 82   80/  5/  7 1014.0R
HATTERAS NC      1600   84 81  290/  3/  4 1014.0S
DIAMOND SHLS NC  1650   83 86  170/ 10/ 12 1014.0F   3/ 8   3/ 8
CAPE LOOKOUT NC  1700   82     160/  7/  9 1013.8F


USA.gov is the U.S. government's official web portal to all federal, state and local government web resources and services.